Lapse_Rate
6.1 6.1 6.0 5.9 5.9 6.0 6.1 6.1 6.1 6.2 6.3 6.2 6.2 6.2 6.4 6.6 6.8 6.9 7.1 7.1 7.0 7.0 7.0 6.9 6.8 6.8 6.6 6.4 6.2 6.2 6.3 6.4 6.3 6.2 6.1 6.0 5.9 5.7 5.5 5.4 5.0 4.6 4.3 4.0 3.8 3.5 3.3
6.1 6.1 6.1 6.1 6.1 6.1 6.0 6.1 6.0 6.1 6.2 6.3 6.2 6.2 6.3 6.4 6.6 6.9 7.1 7.2 7.1 7.0 6.9 6.9 6.7 6.6 6.4 6.1 6.0 6.0 6.0 6.0 6.0 6.0 5.9 5.9 5.7 5.6 5.2 5.1 4.7 4.3 4.2 4.0 3.8 3.7 3.7
6.0 6.0 6.1 6.1 6.1 6.1 6.1 6.0 6.1 6.1 6.3 6.3 6.3 6.2 6.3 6.5 6.5 6.6 7.0 7.1 7.2 7.0 7.0 6.9 6.8 6.5 6.2 6.0 5.8 5.9 6.0 5.9 5.8 5.8 5.7 5.6 5.5 5.3 5.2 5.0 4.6 4.4 4.0 4.0 3.8 3.7 3.5
5.9 6.1 6.2 6.0 6.0 6.0 6.2 6.1 6.1 6.1 6.2 6.3 6.3 6.4 6.3 6.5 6.6 6.5 6.8 7.1 7.1 7.1 6.8 6.7 6.6 6.4 5.9 6.0 5.6 5.8 6.0 5.9 5.8 5.7 5.6 5.5 5.5 5.3 5.0 5.0 4.7 4.3 3.9 3.1 3.5 3.6 3.6
5.9 6.0 6.1 6.1 6.0 6.0 6.0 6.0 6.0 6.0 6.1 6.2 6.3 6.4 6.6 6.5 6.6 6.5 6.4 6.7 6.9 7.0 6.9 6.6 6.2 6.1 5.9 5.8 5.9 5.8 5.8 5.8 5.7 5.7 5.7 5.5 5.3 5.1 5.0 4.8 4.4 4.2 3.8 3.8 3.9 4.0 3.8
6.0 5.9 6.0 6.1 6.1 6.1 6.0 5.9 5.9 5.8 5.9 6.0 6.2 6.3 6.4 6.4 6.5 6.5 6.5 6.6 6.7 6.7 6.7 6.5 6.2 5.9 5.7 5.8 5.7 5.7 5.7 5.7 5.6 5.4 5.3 5.2 5.0 4.8 4.7 4.6 4.8 4.3 4.1 4.1 3.7 3.9 3.5
6.0 6.0 5.9 6.0 6.0 6.0 5.9 5.9 5.9 5.8 5.8 5.8 6.0 6.1 6.3 6.3 6.2 6.2 6.3 6.4 6.3 6.4 6.5 6.2 6.1 5.9 5.6 5.6 5.5 5.5 5.5 5.4 5.3 5.3 5.1 4.9 4.6 4.5 4.4 4.3 4.2 4.0 3.8 3.5 3.2 3.4 3.4
5.5 5.6 5.9 5.8 5.9 5.9 5.8 5.8 5.9 5.8 5.7 5.7 5.8 5.9 6.0 6.0 6.1 6.2 6.1 6.0 6.2 5.9 5.9 5.8 5.6 5.6 5.5 5.4 5.4 5.5 5.4 5.3 5.1 4.9 4.8 4.6 4.4 4.2 4.0 3.9 3.8 3.6 3.3 2.9 2.4 2.2 1.8
5.3 5.4 5.6 5.7 5.7 5.8 5.8 5.7 5.7 5.8 5.7 5.6 5.8 5.7 5.7 5.8 5.9 6.0 6.0 5.9 5.8 5.8 5.5 5.6 5.2 5.1 5.2 5.2 5.4 5.3 5.2 5.0 4.8 4.5 4.4 4.2 4.1 3.9 3.9 3.4 3.2 3.0 2.7 2.5 2.5 2.2 2.1
5.2 5.4 5.5 5.6 5.6 5.6 5.6 5.6 5.7 5.6 5.6 5.5 5.6 5.6 5.6 5.8 5.8 5.8 5.9 5.9 5.7 5.7 5.4 5.3 5.2 4.8 5.1 5.2 5.1 4.9 4.9 4.8 4.6 4.3 4.3 3.9 3.6 3.4 2.9 2.8 2.8 2.4 2.5 2.4 2.0 1.3 2.2
5.6 5.6 5.6 5.6 5.5 5.5 5.4 5.5 5.4 5.5 5.5 5.5 5.5 5.5 5.6 5.5 5.5 5.7 5.8 5.9 5.7 5.7 5.2 5.3 5.1 5.4 5.2 5.4 5.3 5.0 4.8 4.6 4.5 4.4 4.0 3.5 3.2 2.8 2.6 2.7 2.7 2.2 2.3 2.1 1.7 0.9 0.9
5.8 5.6 5.3 5.1 5.3 5.3 5.0 5.1 5.4 5.5 5.4 5.3 5.2 5.3 5.4 5.3 5.4 5.4 5.6 5.7 5.7 5.4 5.0 5.5 5.6 5.7 5.4 5.4 5.4 5.2 4.9 4.6 4.3 3.9 3.6 3.3 3.0 2.4 2.3 2.4 2.6 2.5 2.4 1.9 1.6 1.2 1.8
5.6 5.3 5.2 5.2 5.3 5.2 5.1 5.2 5.4 5.3 5.4 5.3 4.9 5.1 5.1 5.2 5.2 5.3 5.4 5.4 5.4 5.2 6.0 5.5 5.7 5.8 5.6 5.3 5.1 5.0 4.7 4.6 4.5 3.8 3.1 3.0 2.7 2.5 2.5 2.4 2.5 2.4 2.4 3.2 3.0 2.7 3.8
5.9 5.5 5.5 5.3 5.4 5.7 5.3 5.5 5.2 5.3 5.3 5.3 5.1 5.1 4.9 5.1 5.2 5.3 5.3 5.0 4.8 5.7 6.2 6.1 6.0 5.7 5.3 5.1 4.8 4.8 4.5 4.4 4.2 3.9 3.7 3.1 2.3 2.5 2.5 2.4 2.3 2.2 2.6 3.5 4.1 4.4 4.2
6.2 5.9 5.8 5.6 5.5 5.6 5.6 5.2 5.1 5.2 5.3 5.2 5.3 5.0 5.0 4.9 5.0 5.0 5.1 4.8 5.6 5.9 5.9 5.8 5.6 5.4 5.3 5.1 4.7 4.5 4.4 4.3 4.2 4.0 4.0 3.2 2.4 2.5 2.3 2.1 2.3 1.8 1.7 2.5 2.5 1.5 1.9
6.4 5.9 5.7 5.6 5.6 5.6 5.6 5.2 5.2 5.4 5.6 5.3 5.0 5.1 5.0 5.0 5.0 4.9 4.7 4.8 5.4 5.7 5.7 5.6 5.3 5.2 5.2 5.3 4.7 4.5 4.6 4.4 4.1 3.9 3.7 3.5 2.5 2.2 1.8 1.8 1.9 2.0 2.1 1.9 2.0 2.7 3.2
6.1 5.7 5.6 5.5 5.7 5.4 5.5 5.6 5.6 5.6 5.6 5.6 5.3 5.2 5.3 5.0 4.9 4.6 4.6 4.9 5.3 5.1 4.7 4.6 5.3 5.1 5.1 5.1 4.7 4.5 4.3 4.2 4.0 3.9 3.6 3.5 3.2 1.3 1.4 1.5 1.3 1.5 1.5 1.9 2.3 2.3 3.8
5.9 5.7 5.6 5.6 5.6 5.7 5.7 5.9 5.8 5.6 5.7 5.6 5.5 5.1 5.3 5.2 5.0 4.8 4.9 4.7 5.1 5.0 4.7 4.0 4.4 4.9 4.7 4.7 4.4 4.3 4.4 4.4 4.0 3.7 3.3 3.2 2.5 1.8 1.6 2.1 1.9 1.8 2.0 2.1 2.9 2.1 1.7
6.3 6.1 5.7 5.6 5.6 5.6 5.6 6.0 5.7 5.7 5.6 5.8 5.5 5.3 5.2 5.2 5.1 5.2 5.1 5.1 4.4 5.0 4.8 4.0 4.0 4.5 4.7 4.3 4.0 4.0 4.0 4.1 3.9 3.5 3.1 2.9 2.2 1.8 1.8 1.6 1.9 1.8 2.5 2.4 2.5 2.5 2.1
6.4 6.3 6.0 5.8 5.8 5.8 5.7 6.0 5.7 5.7 5.7 5.8 5.7 5.6 5.5 5.3 5.2 5.2 5.0 4.8 4.7 4.8 4.5 4.0 3.5 4.2 4.2 4.2 4.2 4.0 3.8 3.8 3.7 3.3 3.3 2.5 2.5 3.2 3.8 3.4 2.8 2.7 3.5 3.2 2.7 2.4 3.5
6.4 6.4 6.1 6.0 5.7 5.8 5.8 5.8 5.8 5.7 5.8 5.8 5.8 5.7 5.7 5.5 5.8 5.2 4.9 4.8 5.0 4.4 3.9 3.8 3.5 3.5 3.3 3.7 3.9 3.8 3.8 3.5 3.1 3.0 3.2 2.2 2.2 2.8 2.8 2.8 2.6 2.6 3.3 3.4 3.6 4.3 3.9
6.6 6.4 6.2 6.0 5.6 5.8 5.8 5.7 5.7 5.5 5.4 5.5 5.6 5.7 5.6 5.5 5.6 5.4 5.0 5.0 4.7 4.2 3.8 3.9 3.5 2.9 2.7 3.3 3.7 3.7 3.7 3.5 3.2 2.9 2.7 2.3 2.0 2.4 2.1 2.7 2.5 2.3 3.3 3.9 3.9 3.8 4.4
6.8 6.7 6.4 6.2 5.9 5.7 5.7 5.8 5.7 5.5 5.8 5.5 5.5 5.3 5.3 5.0 5.3 5.1 5.2 5.1 4.5 4.0 3.8 3.7 3.1 2.4 2.4 2.7 3.3 3.2 3.0 3.0 2.9 2.9 2.8 2.5 2.3 2.0 1.3 2.4 1.7 1.0 5.1 5.3 5.4 6.0 6.5
7.2 6.9 6.7 6.5 6.3 6.2 6.0 5.7 5.6 5.4 5.5 5.5 5.5 5.3 5.1 5.0 5.0 5.3 4.9 4.7 4.5 3.8 3.5 3.3 2.9 2.3 2.6 2.8 2.9 2.7 2.6 2.6 2.5 2.4 2.5 2.4 2.5 2.0 1.9 1.8 1.6 3.9 4.7 5.5 5.7 6.2 7.1
7.3 7.1 7.0 6.6 6.3 6.2 5.9 5.6 5.3 5.6 5.4 5.3 5.4 5.3 5.0 4.8 5.0 5.2 4.9 4.8 4.4 4.0 3.3 3.0 2.5 2.4 2.4 2.5 2.6 2.2 2.2 2.0 2.2 2.2 2.4 2.4 2.3 2.4 2.4 1.5 2.8 4.0 5.2 5.8 6.3 6.2 6.9
7.5 7.3 7.1 6.9 6.5 6.3 5.9 5.7 5.4 5.5 5.3 5.2 5.2 5.2 5.1 4.9 4.7 4.8 4.8 4.6 4.3 3.8 2.9 2.8 2.8 2.6 2.2 2.2 2.3 2.1 2.5 2.5 2.5 2.3 2.6 2.4 2.3 2.2 2.5 2.3 3.5 5.0 5.8 6.0 6.0 5.5 6.7
7.6 7.6 7.4 7.2 6.9 6.4 5.9 5.7 5.6 5.2 5.0 5.3 5.2 5.1 4.9 4.7 4.6 4.4 4.5 4.2 3.9 3.4 2.8 2.8 2.7 2.4 1.8 2.0 1.9 2.0 2.5 2.7 2.7 3.2 3.5 2.9 2.0 2.5 2.4 2.6 3.2 5.1 5.6 5.6 5.4 6.6 6.8
7.7 7.7 7.6 7.5 7.2 6.5 6.1 5.9 5.5 5.3 5.2 5.0 4.9 5.0 4.8 4.8 4.6 4.4 4.2 3.8 3.8 3.0 2.7 2.5 2.1 1.8 1.8 1.5 1.8 2.2 2.4 2.7 2.7 3.3 3.9 4.2 4.1 3.6 2.5 2.6 3.2 5.6 5.7 5.8 6.5 6.7 6.8
7.7 7.7 7.6 7.3 7.2 6.8 6.2 5.6 5.4 5.5 5.8 5.6 5.5 5.2 5.0 4.8 4.4 4.4 4.2 3.8 3.4 2.7 2.5 2.3 2.0 2.1 2.3 2.2 1.9 2.1 2.5 3.0 3.4 3.2 4.0 3.8 4.8 5.0 5.2 5.7 5.9 6.2 6.3 6.1 6.5 6.7 6.7
Wind_Speed
5 5 6 7 7 8 9 10 11 13 14 14 14 13 13 11 9 12 14 16 15 14 11 6 5 7 3 6 6 18 22 13 4 3 5 7 5 5 8 8 11 14 11 14 12 19 19
4 5 5 6 6 7 9 10 11 12 13 13 14 14 13 11 7 10 10 12 12 11 10 8 6 3 2 6 13 18 14 4 7 4 5 3 4 8 9 9 4 10 15 12 10 14 7
3 4 5 5 6 7 8 9 10 11 12 13 13 13 12 11 7 6 10 11 10 5 6 9 8 4 17 7 9 13 10 4 5 3 6 5 4 2 7 12 6 9 10 10 9 5 5
2 3 3 4 5 7 8 8 9 10 11 12 11 12 11 10 6 3 4 5 7 6 3 2 6 3 6 3 9 17 9 12 11 9 9 7 10 10 5 8 4 4 4 5 5 3 4
1 2 2 3 4 5 6 7 8 9 10 10 10 11 9 9 5 3 4 5 4 9 7 3 3 2 5 5 9 11 9 5 5 9 12 8 7 5 3 8 5 1 3 3 5 4 2
3 2 1 2 3 4 6 6 8 10 10 10 10 10 9 9 5 8 7 6 13 3 7 3 4 5 5 6 5 8 6 6 7 4 5 9 5 6 4 3 3 5 3 2 2 3 4
5 3 2 1 1 3 4 5 7 9 10 10 10 10 7 7 5 4 1 2 2 3 12 7 4 5 3 4 3 10 6 5 4 8 4 7 7 9 9 9 6 6 3 1 1 1 6
7 5 4 2 0 2 3 5 6 8 10 10 9 11 3 9 8 6 3 2 1 2 10 5 5 5 5 1 2 18 11 4 4 6 3 4 8 7 6 5 5 4 3 3 3 5 5
9 8 6 5 2 0 2 3 5 6 8 8 8 9 5 4 4 4 3 3 1 3 3 3 4 4 3 4 6 10 8 3 7 5 4 2 11 4 4 4 5 4 3 2 3 4 3
12 10 8 7 5 3 1 2 4 6 7 8 8 8 5 1 2 1 2 3 2 3 3 3 2 4 3 2 5 4 6 3 4 10 10 8 5 4 4 3 3 4 3 3 5 4 3
15 13 10 9 8 6 3 1 4 5 6 7 5 10 11 3 7 2 3 4 1 2 4 4 3 2 4 4 3 6 4 4 6 7 3 5 9 7 3 0 2 2 3 6 5 5 3
18 15 13 11 10 7 4 2 2 4 5 5 3 3 2 3 2 2 4 2 2 3 5 4 2 2 3 3 2 2 3 6 3 7 9 7 3 2 2 2 2 4 1 3 2 2 3
21 18 16 14 12 9 6 4 2 2 3 3 5 9 5 1 2 5 4 2 2 5 2 4 2 2 3 2 2 1 2 6 4 6 6 5 4 4 2 5 3 2 3 3 3 4 2
24 21 18 17 14 12 9 6 4 2 2 1 9 3 7 3 2 5 2 2 4 2 4 3 4 6 3 4 1 2 5 5 2 2 5 8 5 8 4 2 2 1 2 3 5 3 3
26 23 21 18 15 13 11 8 5 3 3 9 9 2 2 5 1 2 2 3 4 1 6 10 5 5 5 3 2 4 5 4 5 6 5 6 4 3 3 2 2 5 3 1 0 0 3
28 27 24 22 19 16 12 10 7 4 4 10 2 2 2 2 1 2 2 4 2 2 6 5 8 8 8 8 7 7 9 5 7 4 2 6 4 6 5 1 6 4 8 3 2 3 6
27 28 27 25 23 20 16 13 8 4 7 10 2 2 2 1 1 2 4 4 4 4 3 6 5 6 5 7 9 6 5 4 6 6 3 5 2 6 5 8 9 5 4 1 1 2 4
25 29 28 27 26 23 19 15 10 8 13 4 3 1 2 3 2 2 3 2 4 5 2 3 3 4 9 9 8 7 9 1 10 11 7 3 1 5 2 2 2 2 4 7 4 6 2
21 29 30 30 27 24 22 17 14 13 13 3 3 2 2 2 4 5 1 3 3 5 5 6 7 4 2 8 5 7 5 1 9 9 8 8 4 3 3 2 3 6 6 3 4 1 9
14 29 31 30 29 28 24 21 17 13 11 3 3 2 1 1 1 2 4 5 5 2 3 3 4 4 4 4 2 6 6 4 6 5 5 6 3 5 6 3 4 6 12 14 9 5 7
12 25 28 30 29 28 25 22 18 14 13 3 1 3 1 4 6 8 3 2 5 6 3 6 3 9 7 5 4 6 6 6 4 5 4 4 6 4 3 1 3 5 8 18 19 16 12
21 20 25 26 29 29 28 24 21 18 12 2 5 4 1 0 1 7 6 6 10 4 8 6 7 8 9 6 7 10 10 8 6 6 6 1 3 2 3 2 6 9 14 16 20 19 18
15 10 22 26 29 30 29 27 24 24 12 2 1 1 2 5 5 5 5 7 9 9 7 1 6 6 9 6 4 5 6 6 6 10 8 7 7 5 3 1 2 7 20 23 14 14 18
11 13 11 25 28 30 30 28 27 27 12 3 2 3 3 4 9 8 5 8 7 7 3 2 4 4 6 17 16 11 12 12 10 7 3 6 6 2 1 2 7 3 1 2 19 11 20
12 14 14 23 30 31 30 30 28 27 19 2 2 2 2 3 7 7 8 5 7 6 3 3 2 1 16 3 3 3 2 1 3 5 4 3 4 3 3 5 9 7 6 7 10 10 22
16 17 16 13 30 33 32 31 29 27 25 4 1 2 1 4 7 2 6 6 5 4 3 2 5 13 2 3 3 7 7 4 5 3 2 3 2 3 3 5 7 4 1 3 2 8 6
17 19 16 16 29 35 34 32 30 27 23 6 2 2 2 3 1 2 4 5 6 4 3 5 7 4 0 3 5 5 5 1 7 9 7 4 3 11 9 6 8 0 6 3 5 5 10
19 21 23 22 27 35 33 33 32 29 23 7 3 3 2 2 2 3 1 4 4 4 5 7 5 4 4 6 5 4 5 6 4 4 7 10 10 6 5 7 10 5 6 5 3 4 6
23 22 25 20 31 36 34 33 28 25 21 12 3 4 8 4 3 2 4 3 2 2 4 11 1 4 6 4 4 2 3 3 4 3 2 4 5 4 10 4 2 3 3 2 2 5 5
Wind_Direction
74 69 63 61 49 40 35 34 29 25 22 21 24 24 26 38 62 71 80 88 104 98 92 64 7 349 313 56 19 327 330 333 5 58 90 116 122 108 114 124 97 110 99 77 94 86 82
72 57 60 63 57 44 37 32 28 26 24 23 25 23 23 31 64 73 102 97 94 102 69 29 22 354 34 70 324 333 331 348 28 59 72 61 114 108 90 101 68 108 107 105 72 77 86
76 69 64 48 45 51 42 31 32 29 22 21 24 28 24 26 43 87 97 94 91 60 49 33 52 64 67 54 356 358 27 1 354 76 85 25 107 100 124 105 121 131 114 115 59 91 108
89 60 56 69 44 35 37 33 29 28 23 22 20 28 31 25 28 68 108 71 57 61 47 68 48 95 79 352 3 19 8 65 62 60 75 38 67 83 43 124 77 126 160 195 63 32 117
122 65 57 54 51 42 35 27 23 24 24 24 21 24 26 33 51 100 118 81 71 71 45 43 63 57 81 343 10 356 16 58 59 62 47 52 60 56 85 138 138 141 187 186 141 68 20
176 155 85 52 38 38 35 26 14 15 18 17 19 19 20 28 80 97 119 91 42 45 10 92 76 119 47 4 346 343 351 4 39 18 38 34 51 97 66 227 205 163 175 170 250 15 352
187 186 172 133 29 26 30 30 18 11 11 16 8 12 10 41 73 100 19 283 240 51 36 54 58 76 39 346 44 13 356 334 26 52 53 27 90 85 68 57 77 92 95 217 205 17 323
201 195 186 194 113 24 11 19 24 15 7 7 10 3 15 62 70 63 60 22 39 112 100 57 63 82 71 309 51 12 5 55 27 88 88 87 98 92 81 75 97 109 134 223 265 197 283
204 204 198 188 205 233 4 5 16 20 12 1 11 15 106 71 78 50 69 119 323 297 72 63 45 39 2 34 54 4 11 61 66 65 59 81 131 126 103 112 154 172 213 210 278 306 233
208 208 203 194 200 207 240 5 11 17 15 4 13 23 140 51 119 121 91 163 253 309 254 130 62 36 8 115 70 21 15 45 86 105 90 90 142 160 125 115 259 201 186 279 269 271 293
213 206 206 200 203 209 194 34 3 7 27 10 35 71 60 56 125 137 116 167 234 246 285 97 80 52 46 73 113 38 12 53 117 132 210 120 156 164 188 197 210 77 284 277 258 242 285
209 207 203 208 205 207 200 172 80 1 18 9 73 78 33 48 74 99 143 157 249 234 252 146 125 157 130 33 70 358 67 56 84 83 86 126 110 176 136 184 244 332 228 137 142 190 241
206 203 200 205 203 199 203 191 185 101 5 47 97 86 79 65 95 142 142 204 200 228 90 157 174 164 119 116 93 51 113 141 180 138 172 158 166 142 172 177 212 272 203 230 218 213 321
200 203 203 196 197 197 198 194 199 152 86 55 132 97 50 61 129 146 168 206 228 95 186 119 127 129 215 162 144 141 152 173 164 188 157 182 211 189 141 235 199 177 254 288 284 275 342
198 199 197 196 194 196 196 190 204 174 125 142 136 34 59 9 187 191 181 207 276 141 135 151 136 193 190 201 235 193 219 217 166 188 212 167 176 109 69 146 237 150 203 32 89 66 274
197 195 193 190 189 194 193 193 206 174 150 168 95 96 56 346 217 274 187 244 210 131 127 166 212 203 198 186 192 204 190 168 167 186 226 172 136 194 157 204 60 252 136 163 184 250 260
202 193 193 190 190 181 188 190 187 156 141 157 79 105 7 136 268 226 233 226 168 161 169 191 207 179 215 187 203 204 190 164 174 144 164 161 247 146 162 205 187 156 183 102 10 266 256
216 198 192 187 186 178 186 187 169 154 140 105 132 213 353 311 163 223 237 232 147 160 140 155 184 186 196 179 194 222 214 239 170 158 162 160 122 183 184 93 338 294 214 193 220 188 214
232 202 192 187 180 179 181 171 186 167 164 145 124 102 3 315 200 216 190 249 252 156 194 179 199 206 139 186 218 206 187 109 163 169 158 174 187 165 197 203 205 226 189 153 95 48 204
265 198 192 184 178 177 177 184 180 156 152 94 104 164 161 221 285 251 181 216 216 203 187 171 144 117 143 182 211 179 160 164 188 184 145 160 181 239 266 49 119 199 196 192 190 201 190
301 195 188 184 179 178 181 182 167 153 152 104 117 208 197 206 224 213 206 163 192 202 196 187 185 210 170 172 174 202 162 150 179 207 111 199 225 217 250 203 230 234 207 195 208 216 214
349 206 191 184 182 181 181 175 167 160 151 87 146 161 255 249 141 165 177 202 215 170 170 211 226 209 181 180 206 192 162 187 184 168 157 176 200 162 254 225 235 256 242 220 220 231 246
338 340 192 192 189 182 178 176 173 167 147 155 130 73 152 159 161 178 214 199 210 164 205 7 230 162 207 223 99 65 87 70 121 165 161 167 156 161 233 34 267 256 238 211 209 218 221
313 313 267 196 191 184 182 178 177 177 175 122 176 114 150 204 192 204 213 198 187 199 166 141 154 180 122 118 111 85 70 71 63 45 64 149 145 176 257 210 246 316 41 250 219 232 217
318 312 289 212 189 184 184 181 178 183 182 108 150 148 158 204 202 193 177 144 106 81 102 129 77 37 157 149 110 124 106 137 78 44 28 354 143 159 230 224 319 275 196 181 183 258 216
312 311 288 291 189 180 183 182 181 186 187 119 91 90 132 127 221 55 157 177 168 142 125 110 25 138 197 178 168 201 210 176 185 162 65 79 46 247 158 247 262 34 150 195 217 268 21
304 300 286 283 194 180 180 179 180 182 181 138 120 133 122 166 147 171 166 171 139 130 118 126 146 203 313 177 205 210 215 67 188 181 169 165 189 219 217 257 283 118 140 142 188 317 340
306 294 289 250 198 178 178 176 175 182 159 125 96 17 149 137 84 350 24 145 137 162 161 132 126 208 174 202 213 202 211 198 188 139 179 176 165 192 190 223 264 137 118 213 10 352 352
309 303 305 204 187 178 173 171 167 172 149 118 110 79 66 75 83 16 57 59 51 24 130 181 3 154 169 187 207 130 173 166 177 225 217 216 220 189 203 214 39 217 26 49 266 316 342